Stations météo

réclame
Mon MeteoGroup
Abbeville, France (7005): Température de l'air & dewpoint: 12.01.2020 02:00:00 - 18.01.2020 02:00:00 (CET)Abbeville, France (7005): Température de l'air 5cm: 12.01.2020 02:00:00 - 18.01.2020 02:00:00 (CET)Abbeville, France (7005): Température de l'air -20cm & Température de l'air -100cm: 12.01.2020 02:00:00 - 18.01.2020 02:00:00 (CET)Abbeville, France (7005): Vitesse du vent & gusts: 12.01.2020 02:00:00 - 18.01.2020 02:00:00 (CET)Abbeville, France (7005): Direction du vent: 12.01.2020 02:00:00 - 18.01.2020 02:00:00 (CET)Abbeville, France (7005): reduced air pressure: 12.01.2020 02:00:00 - 18.01.2020 02:00:00 (CET)Abbeville, France (7005): visibility: 12.01.2020 02:00:00 - 18.01.2020 02:00:00 (CET)Abbeville, France (7005): Ensoleillement: 12.01.2020 02:00:00 - 18.01.2020 02:00:00 (CET)Abbeville, France (7005): Quantités de précipitations: 12.01.2020 02:00:00 - 18.01.2020 02:00:00 (CET)
Date & Time tt [°C] td [°C] tt 5cm [°C] tt -20cm [°C] tt -100cm [°C] ff [km/h] ff [knt] fx [km/h] fx [knt] dd ppp [hPa] vv [km] sd [min] rr [mm]
18.01.2020 02:00:00 3,9 2,6 3,0 6,8 8,4 10 6 43 23 SW 1023,0 20 0 1,2
18.01.2020 01:00:00 4,6 3,1 3,7 6,9 8,4 10 6 29 15 SW 1022,7 20 0 1,0
18.01.2020 00:00:00 4,7 3,0 3,5 7,0 8,4 16 9 37 20 WSW 1022,5 15 0 0,6
17.01.2020 23:00:00 4,3 2,2 2,7 7,2 8,4 10 5 22 12 SW 1021,8 20 0 0,0
17.01.2020 22:00:00 4,8 3,3 3,7 7,3 8,4 8 5 22 12 SSW 1021,7 19 0 0,4
17.01.2020 21:00:00 5,3 3,5 4,3 7,5 8,4 16 9 48 26 WSW 1021,7 14 0 0,6
17.01.2020 20:00:00 5,7 2,5 5,0 7,6 8,4 11 6 45 24 SW 1020,9 20 0 0,0
17.01.2020 19:00:00 6,4 2,7 5,9 7,7 8,4 28 15 56 30 WSW 1020,4 20 0 0,0
17.01.2020 18:00:00 7,1 4,7 5,6 7,7 8,4 16 9 48 26 WSW 1019,4 20 0 0,4
17.01.2020 17:00:00 6,8 4,9 5,6 7,8 8,4 17 9 46 25 WSW 1018,4 13 2 1,0
17.01.2020 16:00:00 7,4 4,0 6,2 7,8 8,4 29 16 53 28 WSW 1017,7 16 5 0,0
17.01.2020 15:00:00 8,8 3,2 8,5 7,8 8,4 35 19 61 33 W 1016,8 20 19 0,0
17.01.2020 14:00:00 9,6 5,4 8,3 7,6 8,4 38 20 63 34 W 1016,2 20 16 0,0
17.01.2020 13:00:00 10,8 5,5 10,5 7,5 8,4 28 15 46 25 WSW 1015,2 20 53 0,0
17.01.2020 12:00:00 10,2 5,8 10,1 7,5 8,4 21 12 45 25 WSW 1015,1 20 17 0,0
17.01.2020 11:00:00 10,0 6,3 8,7 7,5 8,4 16 9 40 22 WSW 1014,7 20 3 0,0
17.01.2020 10:00:00 9,7 7,3 8,5 7,4 8,4 11 6 28 15 SW 1014,1 20 0 0,0
17.01.2020 09:00:00 9,6 7,5 8,4 7,4 8,4 9 5 25 13 SSW 1013,4 20 0 0,0
17.01.2020 08:00:00 9,7 8,0 8,6 7,3 8,4 10 6 24 13 S 1013,0 20 0 0,0
17.01.2020 07:00:00 9,6 8,2 8,6 7,3 8,4 10 6 23 13 S 1012,9 20 0 0,2
17.01.2020 06:00:00 9,4 8,2 8,4 7,3 8,5 9 5 22 12 S 1012,9 20 0 0,2
17.01.2020 05:00:00 9,5 7,8 8,4 7,2 8,4 9 5 24 13 S 1013,2 19 0 0,4
17.01.2020 04:00:00 10,2 7,3 8,9 7,2 8,4 8 4 35 19 SSW 1013,3 20 0 0,2
17.01.2020 03:00:00 10,9 7,0 9,4 7,1 8,4 16 9 39 21 S 1013,4 20 0 0,0
17.01.2020 02:00:00 10,9 6,2 9,4 7,1 8,4 16 9 30 16 S 1013,5 20 0 0,0
17.01.2020 01:00:00 10,1 5,7 9,1 7,2 8,5 11 6 32 18 S 1014,2 20 0 0,0
17.01.2020 00:00:00 10,6 5,8 9,4 7,1 8,4 17 9 34 18 SSE 1014,4 20 0 0,0
16.01.2020 23:00:00 10,7 5,9 9,8 7,1 8,4 18 10 36 19 SSE 1014,6 20 0 0,0
16.01.2020 22:00:00 10,5 5,9 9,6 7,1 8,4 19 10 31 17 SSE 1015,0 20 0 0,0
16.01.2020 21:00:00 10,5 5,9 9,7 7,1 8,4 19 10 34 19 SSE 1015,4 20 0 0,0
16.01.2020 20:00:00 11,0 5,9 9,8 7,1 8,4 24 13 39 21 SSE 1015,9 20 0 0,0
16.01.2020 19:00:00 11,4 6,5 10,4 7,0 8,4 22 12 40 22 SSE 1016,2 20 0 0,0
16.01.2020 18:00:00 11,4 6,7 10,3 6,9 8,4 22 12 38 20 SSE 1016,3 20 0 0,0
16.01.2020 17:00:00 11,6 7,1 10,8 6,7 8,4 21 11 33 18 SE 1016,7 20 0 0,0
16.01.2020 16:00:00 11,8 7,1 11,8 6,5 8,4 18 10 40 22 SSE 1017,5 20 0 0,0
16.01.2020 15:00:00 11,4 7,7 11,2 6,2 8,4 25 14 39 21 SSE 1017,9 20 34 0,0
16.01.2020 14:00:00 10,6 7,3 9,9 5,9 8,4 21 11 40 22 SSE 1019,3 19 60 0,0
16.01.2020 13:00:00 8,8 6,9 7,7 5,8 8,4 21 11 40 22 SSE 1020,3 19 27 0,0
16.01.2020 12:00:00 7,5 6,1 7,0 5,7 8,4 21 12 40 22 SE 1021,8 17 37 0,0
16.01.2020 11:00:00 5,9 5,3 4,6 5,7 8,4 24 13 42 23 SSE 1021,9 8 14 0,0
16.01.2020 10:00:00 4,6 3,7 3,6 5,7 8,4 15 8 28 15 SE 1022,7 8 0 0,0
16.01.2020 09:00:00 4,7 3,8 2,8 5,8 8,4 16 9 28 15 SE 1022,9 13 0 0,0
16.01.2020 08:00:00 3,7 2,8 2,7 5,9 8,4 11 6 23 12 ESE 1023,3 16 0 0,0
16.01.2020 07:00:00 4,0 3,3 2,8 6,0 8,4 12 7 19 11 SSE 1023,4 19 0 0,0
16.01.2020 06:00:00 4,0 3,3 2,6 6,2 8,4 12 6 19 10 SSE 1023,7 18 0 0,0
16.01.2020 05:00:00 3,8 3,1 2,6 6,3 8,4 10 5 19 10 SSE 1023,9 15 0 0,0
16.01.2020 04:00:00 4,2 3,3 2,5 6,5 8,4 14 7 19 10 SSE 1023,8 20 0 0,2
16.01.2020 03:00:00 4,9 3,7 2,3 6,6 8,4 10 5 14 7 SE 1023,5 20 0 0,0
16.01.2020 02:00:00 4,7 3,7 2,4 6,8 8,4 8 4 13 7 SSE 1023,2 20 0 0,0
16.01.2020 01:00:00 4,7 3,8 2,8 7,0 8,4 7 4 13 7 SSE 1023,4 17 0 0,0
16.01.2020 00:00:00 5,2 4,5 3,2 7,2 8,4 8 4 18 10 SSW 1022,7 20 0 0,0
15.01.2020 23:00:00 5,1 4,2 3,5 7,4 8,4 6 3 15 8 SSW 1022,2 20 0 0,0
15.01.2020 22:00:00 5,4 4,7 3,5 7,6 8,4 7 4 14 8 SSW 1021,5 20 0 0,0
15.01.2020 21:00:00 5,5 4,8 3,6 7,7 8,4 6 4 13 7 SSW 1020,6 20 0 0,0
15.01.2020 20:00:00 5,5 4,9 3,6 7,9 8,4 5 3 11 6 SSW 1019,8 20 0 0,0
15.01.2020 19:00:00 5,7 4,8 3,8 8,0 8,4 5 3 10 6 SSW 1018,5 20 0 0,2
15.01.2020 18:00:00 6,7 5,6 5,5 8,1 8,4 6 3 16 9 SSW 1016,9 20 0 0,0
15.01.2020 17:00:00 7,6 6,5 7,0 8,0 8,3 7 4 10 6 W 1015,5 20 18 0,0
15.01.2020 16:00:00 7,8 7,0 7,6 8,0 8,4 9 5 25 14 W 1013,9 20 0 0,0
15.01.2020 15:00:00 8,2 7,1 7,8 8,0 8,4 20 11 43 23 NW 1012,2 13 0 0,8
15.01.2020 14:00:00 10,8 6,7 9,8 7,9 8,4 18 10 45 25 SW 1010,0 20 0 0,0
15.01.2020 13:00:00 10,7 6,1 9,9 7,9 8,4 18 10 41 22 S 1008,7 20 0 0,0
15.01.2020 12:00:00 10,9 5,4 10,0 7,9 8,4 19 10 45 24 S 1008,7 20 0 0,0
15.01.2020 11:00:00 10,5 5,0 8,6 7,9 8,3 19 10 47 25 S 1008,1 20 0 0,0
15.01.2020 10:00:00 10,3 4,9 9,2 7,9 8,4 21 11 53 29 S 1007,4 20 0 0,0
15.01.2020 09:00:00 9,9 4,7 9,3 8,0 8,4 23 12 47 25 S 1007,0 20 0 0,0
15.01.2020 08:00:00 9,9 4,7 8,8 8,1 8,3 19 10 40 21 S 1007,1 20 0 0,0
15.01.2020 07:00:00 9,8 4,6 8,7 8,2 8,4 17 9 43 23 S 1006,9 20 0 0,0
15.01.2020 06:00:00 9,9 4,7 9,0 8,3 8,4 19 10 41 22 S 1006,8 20 0 0,0
15.01.2020 05:00:00 9,9 4,9 9,1 8,4 8,4 13 7 34 19 S 1006,8 20 0 0,0
15.01.2020 04:00:00 10,7 5,0 9,7 8,5 8,4 14 8 39 21 S 1007,2 20 0 0,0
15.01.2020 03:00:00 11,1 5,4 10,3 8,5 8,4 15 8 46 25 S 1007,2 20 0 0,0
15.01.2020 02:00:00 11,5 5,8 10,5 8,6 8,4 17 9 42 23 S 1006,7 20 0 0,0
15.01.2020 01:00:00 11,6 7,3 11,0 8,6 8,4 19 11 72 39 S 1006,7 20 0 0,0
15.01.2020 00:00:00 12,2 7,5 10,8 8,6 8,4 23 13 49 26 SSW 1006,7 20 0 0,0
14.01.2020 23:00:00 11,7 8,4 10,2 8,5 8,4 20 11 56 31 SSW 1006,5 20 0 0,0
14.01.2020 22:00:00 11,4 9,1 10,1 8,5 8,4 22 12 71 38 SSW 1006,2 20 0 0,6
14.01.2020 21:00:00 11,4 9,3 10,1 8,5 8,4 22 12 54 29 SSW 1005,7 19 0 0,2
14.01.2020 20:00:00 12,0 9,0 10,5 8,4 8,4 22 12 54 29 SSW 1005,6 20 0 0,2
14.01.2020 19:00:00 11,8 9,4 10,5 8,4 8,4 21 11 53 29 SSW 1004,9 17 0 0,2
14.01.2020 18:00:00 12,6 8,7 12,0 8,3 8,4 23 12 60 32 SSW 1004,5 20 0 0,0
14.01.2020 17:00:00 12,5 8,8 12,0 8,2 8,4 23 12 66 35 S 1004,3 20 0 0,0
14.01.2020 16:00:00 12,6 8,9 12,2 8,1 8,4 20 11 64 34 SSW 1003,7 20 0 0,0
14.01.2020 15:00:00 12,4 9,0 - 7,9 8,4 21 11 52 28 S 1003,3 20 0 -
14.01.2020 14:00:00 11,7 8,7 11,5 - - 18 10 54 29 S 1003,5 20 0 -
14.01.2020 13:00:00 11,6 9,0 10,2 7,7 - 20 11 47 25 S 1003,7 20 0 0,0
14.01.2020 12:00:00 10,5 9,4 9,6 7,7 - 16 9 36 19 S 1004,3 20 0 0,0
14.01.2020 11:00:00 9,8 9,5 8,6 7,6 - 11 6 35 19 S 1004,6 8 0 0,2
14.01.2020 10:00:00 8,7 8,4 8,1 7,6 - 9 5 13 7 SSE 1004,7 3,1 0 0,6
14.01.2020 09:00:00 8,4 8,0 8,0 7,6 - 4 2 17 9 SSW 1004,6 2,3 0 1,6
14.01.2020 08:00:00 8,4 8,0 7,9 7,6 - 9 5 17 9 WSW 1004,6 2,7 0 1,2
14.01.2020 07:00:00 8,3 7,7 7,9 7,5 - 14 7 32 17 W 1004,0 6 0 0,8
14.01.2020 06:00:00 9,1 8,0 8,5 7,5 - 16 9 49 26 W 1003,4 3,0 0 1,0
14.01.2020 05:00:00 11,0 7,5 10,3 7,4 - 18 10 51 28 S 1002,2 20 0 0,0
14.01.2020 04:00:00 10,8 7,3 9,4 7,4 - 18 10 46 25 S 1002,3 20 0 0,0
14.01.2020 03:00:00 10,1 7,0 8,8 7,4 - 16 9 47 25 S 1003,0 20 0 0,0
14.01.2020 02:00:00 10,5 7,0 9,6 7,3 - 22 12 54 29 S 1003,2 20 0 0,0
14.01.2020 01:00:00 11,0 7,3 10,5 7,2 - 21 11 51 28 S 1003,8 20 0 0,0
14.01.2020 00:00:00 11,0 7,5 10,2 7,2 - 19 10 58 31 S 1004,4 20 0 0,0
13.01.2020 23:00:00 10,8 7,5 9,8 7,1 - 18 10 50 27 S 1004,9 20 0 0,0
13.01.2020 22:00:00 10,3 7,5 9,5 7,1 - 19 10 46 25 S 1005,5 20 0 0,0
13.01.2020 21:00:00 10,3 7,4 9,7 7,0 - 19 10 51 27 S 1006,4 20 0 0,0
13.01.2020 20:00:00 10,4 7,3 9,4 6,9 - 18 10 45 24 S 1007,2 20 0 0,0
13.01.2020 19:00:00 10,2 7,4 9,1 6,8 - 18 10 40 22 S 1007,8 20 0 0,0
13.01.2020 18:00:00 9,7 8,0 8,2 6,7 - 18 10 36 19 S 1008,3 20 0 0,0
13.01.2020 17:00:00 9,0 8,2 8,3 6,6 - 15 8 32 17 S 1009,6 20 0 0,2
13.01.2020 16:00:00 9,0 7,8 8,5 6,5 - 14 8 29 15 S 1010,9 12 0 0,0
13.01.2020 15:00:00 8,9 7,5 7,9 6,4 - 14 8 35 19 S 1011,8 19 0 0,0
13.01.2020 14:00:00 8,2 7,1 7,8 6,2 - 16 9 32 18 S 1013,2 11 0 0,0
13.01.2020 13:00:00 8,4 6,7 8,3 6,1 - 14 8 31 17 S 1014,5 20 0 0,0
13.01.2020 12:00:00 8,0 6,1 7,4 6,0 - 14 8 30 16 SSE 1016,1 20 0 0,0
13.01.2020 11:00:00 7,1 5,2 6,6 6,0 - 10 5 26 14 SSE 1017,7 20 23 0,2
13.01.2020 10:00:00 6,2 4,8 4,3 6,1 - 10 6 21 12 S 1018,7 20 7 0,0
13.01.2020 09:00:00 5,2 4,5 3,5 6,1 - 8 4 19 10 S 1019,0 17 0 0,0
13.01.2020 08:00:00 5,2 4,3 3,9 6,2 - 6 3 17 9 S 1018,9 13 0 0,0
13.01.2020 07:00:00 5,9 5,3 4,2 6,3 - 9 5 23 12 S 1019,8 12 0 0,0
13.01.2020 06:00:00 5,1 4,1 4,3 6,3 - 9 5 18 10 S 1020,4 20 0 0,0
13.01.2020 05:00:00 5,1 4,1 4,2 6,5 - 9 5 17 9 S 1021,0 19 0 0,0
13.01.2020 04:00:00 4,9 4,2 3,5 6,6 - 8 4 12 7 S 1021,9 17 0 0,0
13.01.2020 03:00:00 5,0 4,3 3,6 6,7 - 7 4 14 8 SSW 1022,8 19 0 0,0
13.01.2020 02:00:00 5,1 4,2 4,0 6,9 - 6 4 14 8 SSW 1023,2 19 0 0,0
13.01.2020 01:00:00 5,3 4,4 4,1 7,0 - 6 4 14 8 SSW 1023,7 18 0 0,0
13.01.2020 00:00:00 5,6 4,6 4,1 7,1 - 6 3 13 7 SSW 1024,0 18 0 0,0
12.01.2020 23:00:00 5,8 4,9 4,3 7,3 - 7 4 13 7 SSW 1023,9 17 0 0,0
12.01.2020 22:00:00 6,1 5,1 4,5 7,4 - 5 3 14 8 SSW 1024,1 17 0 0,0
12.01.2020 21:00:00 6,9 5,2 5,6 7,5 - 7 4 19 10 SSW 1024,0 19 0 0,0
12.01.2020 20:00:00 8,0 6,1 7,0 7,5 - 10 5 25 13 SW 1024,1 18 0 0,0
12.01.2020 19:00:00 9,1 6,5 8,3 7,6 - 14 8 37 20 WSW 1023,8 19 0 0,0
12.01.2020 18:00:00 9,5 7,1 8,5 7,5 - 22 12 44 24 WSW 1023,6 17 0 0,0
12.01.2020 17:00:00 10,0 7,1 9,2 7,4 - 34 18 51 28 W 1023,0 20 2 0,0
12.01.2020 16:00:00 10,8 6,9 10,3 7,2 - 33 18 64 34 W 1022,4 20 2 0,0
12.01.2020 15:00:00 11,6 6,9 11,4 7,0 - 35 19 54 29 W 1022,0 20 16 0,0
12.01.2020 14:00:00 11,8 7,5 11,3 6,9 - 29 16 56 30 WSW 1021,8 20 30 0,0
12.01.2020 13:00:00 11,3 8,2 10,7 6,7 - 24 13 41 22 WSW 1022,2 20 10 0,0
12.01.2020 12:00:00 10,1 7,9 9,4 6,6 - 16 8 36 19 SW 1022,4 20 0 0,0
12.01.2020 11:00:00 9,1 7,2 7,4 6,5 - 16 8 41 22 SW 1022,4 20 0 0,0
12.01.2020 10:00:00 7,9 6,4 6,4 6,5 - 12 6 32 17 SSW 1022,0 20 0 0,0
12.01.2020 09:00:00 7,1 5,7 6,4 6,5 - 12 7 30 16 SSW 1021,7 7 0 0,2
12.01.2020 08:00:00 7,7 4,6 6,6 6,5 - 10 6 25 13 SSW 1021,9 20 0 0,0
12.01.2020 07:00:00 6,9 4,0 6,0 6,6 - 8 4 29 15 SSW 1022,4 20 0 0,0
12.01.2020 06:00:00 6,8 3,8 4,9 6,7 - 9 5 28 15 SSW 1022,6 20 0 0,0
12.01.2020 05:00:00 6,1 3,3 4,8 6,8 - 11 6 23 12 S 1023,2 20 0 0,0
12.01.2020 04:00:00 6,1 2,9 5,0 6,8 - 10 6 24 13 S 1024,1 20 0 0,0
12.01.2020 03:00:00 6,4 2,8 5,3 6,9 - 10 5 23 12 S 1024,6 20 0 0,0
12.01.2020 02:00:00 7,1 3,2 6,5 7,0 - 11 6 26 14 S 1024,9 20 0 0,0

tt = Température de l'air
td = dewpoint
tt 5cm = Température de l'air 5cm
tt -20cm = Température de l'air -20cm
tt -100cm = Température de l'air -100cm
ff = Vitesse du vent
fx = gusts
dd = Direction du vent
ppp = reduced air pressure
vv = visibility
sd = Ensoleillement
rr = Quantités de précipitations

stations d'obs. à proximité